Flag for U.S.A. Weather past 2 weeks in Gloucester, Massachusetts, U.S.A.

Now
82 °F

Passing clouds.


Feels Like: 82 °F
Forecast: 68 / 82 °F
Wind: 13 mph from Southwest

Location: Beverly Municipal Airport

Current Time: Aug 1, 2015 at 5:23:46 PM

Latest Report: Aug 1, 2015 at 4:53 PM


Visibility: 10 mi

Pressure: 29.69 "Hg

Humidity: 46%

Dew point: 59 °F

Location of GloucesterLocation

Historic Weather in Gloucester — Graph

°F

Gloucester temperature yesterday

Maximum temperature yesterday: 88 °F (at 1:53 PM)
Minimum temperature yesterday: 65 °F (at 11:53 PM)
Average temperature yesterday: 77 °F

Past Weeks' High & Low Weather Summary

 TemperatureHumidityPressure
High91 °F (Jul 20, 1:53 PM)93% (Jul 23, 1:58 AM)30.04 "Hg (Jul 23, 1:58 AM)
Low58 °F (Jul 23, 4:53 AM)32% (Jul 31, 3:53 PM)29.52 "Hg (Jul 21, 7:53 PM)
Average74 °F70%29.83 "Hg
* Reported Jul 17 3:53 PM — Aug 1 3:53 PM, Gloucester, Weather by CustomWeather, © 2015

Note: Actual official high and low records may vary slightly from our data, if they occured in-between our weather recording intervals... More about our weather records

Advertising

Gloucester weather history for previous 24 hours

 ConditionsComfort  
Time TempWeatherWind HumidityBarometerVisibility
3:53 PM
Sat, Aug 1
81 °FLight rain. Scattered clouds.16 mph41%29.69 "Hg10 mi
2:53 PM87 °FScattered clouds.16 mph32%29.68 "Hg10 mi
2:04 PM81 °FThundershowers. Scattered clouds.8 mph56%29.71 "Hg10 mi
1:53 PM77 °FThunderstorms. Partly sunny.9 mph66%29.70 "Hg10 mi
12:53 PM85 °FScattered clouds.7 mph45%29.70 "Hg10 mi
11:53 AM83 °FPartly sunny.8 mph46%29.72 "Hg10 mi
10:53 AM81 °FPassing clouds.9 mph51%29.72 "Hg10 mi
9:53 AM82 °FSunny.12 mph48%29.72 "Hg10 mi
8:53 AM78 °FSunny.8 mph54%29.72 "Hg10 mi
7:53 AM75 °FSunny.7 mph58%29.72 "Hg10 mi
6:53 AM69 °FPassing clouds.No wind70%29.72 "Hg10 mi
5:53 AM65 °FPassing clouds.No wind76%29.72 "Hg10 mi
4:53 AM65 °FClear.No wind78%29.72 "Hg10 mi
3:53 AM63 °FClear.No wind78%29.73 "Hg10 mi
2:53 AM64 °FClear.No wind78%29.74 "Hg10 mi
1:53 AM66 °FClear.No wind73%29.75 "Hg10 mi
12:53 AM64 °FClear.3 mph78%29.77 "Hg10 mi
11:53 PM
Fri, Jul 31
65 °FClear.No wind73%29.78 "Hg10 mi
10:53 PM69 °FClear.No wind66%29.77 "Hg10 mi
9:53 PM73 °FClear.3 mph57%29.76 "Hg10 mi
8:53 PM75 °FSunny.5 mph52%29.75 "Hg10 mi
7:53 PM79 °FSunny.5 mph44%29.74 "Hg10 mi
6:53 PM83 °FSunny.7 mph37%29.73 "Hg10 mi
5:53 PM83 °FSunny.14 mph36%29.72 "Hg10 mi
Weather by CustomWeather, © 2015

See weather overviewHow to use our weather pages